Location: Hac?musa Deresi
(39.1694°N, 32.2508°E)
Time: 10:32:29
(UTC+00:00)

USA 234 - Pass Details

Date: 22 April 2026
Orbit: 1102 x 1106 km, 123.0° (Epoch: 4 January)

Event Time Altitude Azimuth Distance (km) Brightness Sun altitude
Rises 18:24:57 0° 44° (NE) 3,925 6.1 -19.9°
Reaches altitude 10° 18:27:26 10° 42° (NE) 2,966 5.5 -20.2°
Maximum altitude 18:33:56 69° 320° (NW) 1,172 3.5 -21.2°
Drops below altitude 10° 18:40:25 10° 239° (WSW) 2,957 5.7 -22.2°
Sets 18:42:54 0° 237° (WSW) 3,913 6.4 -22.6°
